Location: Debolt
(55.2626°N, 118.0981°W)
Time: 12:11:19
(UTC+00:00)

DOVE 4 - Visible Passes

Search period start: 01 December 2023 00:00
Search period end: 11 December 2023 00:00
Orbit: 583 x 785 km, 97.8° (Epoch: 01 December)

Date Brightness Start Highest point End Pass type
(mag) Time Alt. Az. Time Alt. Az. Time Alt. Az.
03 Dec ? 15:01:47 10° E 15:04:39 16° NE 15:07:25 10° NNE visible
05 Dec ? 14:40:17 10° ENE 14:41:39 11° NE 14:42:59 10° NNE visible
06 Dec ? 15:14:56 10° E 15:18:13 19° NE 15:21:23 10° N visible
08 Dec ? 14:52:57 10° E 14:55:08 13° NE 14:57:16 10° NNE visible
